Flag for Romania Weather past 2 weeks in Constanța, Romania

Now
58 °F

Passing clouds.


Feels Like: 58 °F
Forecast: 51 / 63 °F
Wind: No wind

Location: Constanta


UV Index: 5 (Moderate)

Visibility: 6 mi


Pressure: 29.93 "Hg

Humidity: 81%

Dew point: 52 °F

Location of ConstanțaLocation

Historic Weather in Constanța

°F

Constanța temperature yesterday

Maximum temperature yesterday: 60 °F (at 1:00 PM)
Minimum temperature yesterday: 51 °F (at 7:00 AM)
Average temperature yesterday: 54 °F

Past Weeks' High & Low Weather Summary

 TemperatureHumidityPressure
High70 °F (Apr 9, 12:00 PM)99% (Apr 12, 9:00 AM)30.21 "Hg (Apr 12, 9:00 AM)
Low41 °F (Apr 7, 7:00 AM)28% (Apr 6, 10:00 PM)29.66 "Hg (Apr 18, 1:00 PM)
Average52 °F81%29.94 "Hg
* Reported Apr 5 10:00 PM — Apr 20 10:00 PM, Constanța, Weather by CustomWeather, © 2014

Note: Actual official high and low records may vary slightly from our data, if they occured in-between our weather recording intervals... More about our weather records

Advertising

Historic Weather Conditions — Data for Previous 24 hours

 ConditionsComfort  
Time TempWeatherWind HumidityBarometerVisibility
10:00 PM
Apr 20
58 °FPassing clouds.No wind81%29.93 "Hg6 mi
9:00 PM60 °FPassing clouds.No wind74%29.91 "Hg6 mi
8:00 PM61 °FPassing clouds.No wind68%29.90 "Hg6 mi
7:00 PM62 °FScattered clouds.1 mph68%29.89 "Hg6 mi
6:00 PM61 °FScattered clouds.2 mph72%29.90 "Hg6 mi
5:00 PM63 °FScattered clouds.3 mph67%29.89 "Hg6 mi
4:00 PM64 °FScattered clouds.2 mph54%29.89 "Hg6 mi
3:00 PM61 °FScattered clouds.3 mph73%29.90 "Hg6 mi
2:00 PM62 °FScattered clouds.3 mph68%29.90 "Hg6 mi
1:00 PM61 °FScattered clouds.3 mph87%29.91 "Hg6 mi
12:00 PM64 °FScattered clouds.No wind65%29.91 "Hg6 mi
11:00 AM62 °FScattered clouds.2 mph66%29.91 "Hg6 mi
10:00 AM59 °FPassing clouds.2 mph71%29.91 "Hg6 mi
9:00 AM58 °FPassing clouds.1 mph75%29.91 "Hg6 mi
8:00 AM54 °FSunny.No wind85%29.91 "Hg6 mi
7:00 AM51 °FPassing clouds.1 mph89%29.90 "Hg6 mi
6:00 AM51 °FPassing clouds.No wind92%29.90 "Hg6 mi
5:00 AM52 °FPassing clouds.1 mph89%29.90 "Hg6 mi
4:00 AM53 °FPassing clouds.1 mph86%29.90 "Hg6 mi
3:00 AM54 °FPassing clouds.1 mph83%29.90 "Hg6 mi
2:00 AM53 °FPassing clouds.1 mph85%29.92 "Hg6 mi
1:00 AM52 °FOvercast.2 mph93%29.93 "Hg6 mi
12:00 AM53 °FOvercast.3 mph94%29.93 "Hg6 mi
11:00 PM
Apr 19
53 °FPassing clouds.2 mph92%29.93 "Hg6 mi
Weather by CustomWeather, © 2014

See weather overview